Regional Weather Roundup
Issued by NWS Cleveland, OH

Home | Current Version | Previous Version | Text Only | Print | Product List | Glossary Off
Versions: 1 2 3 4 5 6 7 8 9 10 11 12 13 14 15 16 17 18 19 20 21 22 23 24 25 26 27 28 29 30 31 32 33 34 35 36 37 38 39 40 41 42 43 44 45 46 47 48 49 50

416
ASUS41 KCLE 260812
RWRCLE
OHIO REGIONAL WEATHER ROUNDUP
NATIONAL WEATHER SERVICE WILMINGTON, OH
400 AM EDT MON JUN 26 2017

NOTE: "FAIR" INDICATES FEW OR NO CLOUDS BELOW 12,000 FEET WITH NO
SIGNIFICANT WEATHER AND/OR OBSTRUCTIONS TO VISIBILITY.

OHZ001>008-015>018-024>027-034-035-043-044-260900-
   NORTHWEST OHIO

CITY           SKY/WX    TMP DP  RH WIND       PRES   REMARKS
DEFIANCE       FAIR      57  50  77 SW3       30.06S
FINDLAY        FAIR      58  47  66 W9        30.05S
TOLEDO EXPRESS CLOUDY    59  51  75 W6        30.03F
TOLEDO EXEC    CLOUDY    61  53  75 SW5       30.04F
LIMA           FAIR      57  49  74 SW8       30.08S
$$

OHZ009>014-019>023-028>033-038-089-260900-
   NORTHEAST OHIO

CITY           SKY/WX    TMP DP  RH WIND       PRES   REMARKS
CLE-HOPKINS    FAIR      58  48  69 SW6       30.05F
CLE-LAKEFRONT  LGT RAIN  60  47  61 SW8       30.02F
CUY CO. ARPT   NOT AVBL
LORAIN-ELYRIA  FAIR      55  46  71 SW6       30.04F
ASHTABULA      CLOUDY    58  52  80 CALM      30.03F
AKRON-CANTON   FAIR      56  45  66 SW6       30.06F
WOOSTER        FAIR      54  48  80 SW5       30.07S
MANSFIELD      FAIR      54  46  74 SW5       30.07S
YOUNGSTOWN     FAIR      53  47  79 CALM      30.05S
$$

OHZ042-051>053-060>062-070>072-077>081-260900-
  SOUTHWEST OHIO

CITY           SKY/WX    TMP DP  RH WIND       PRES   REMARKS
CINC-COVINGTON FAIR      59  50  72 NW7       30.13S
CINC-LUNKEN    FAIR      56  55  97 CALM      30.13S
HAMILTON       MOCLDY    57  55  93 W3        30.13F
DAYTON         FAIR      56  49  77 W8        30.12S
WRIGHT-PAT AFB PTCLDY    55  54  99 CALM      30.10F
DAYTON GENERAL FAIR      61  50  67 W5        30.11S
WILMINGTON     MOCLDY    58  52  80 W6        30.11F
$$

OHZ036-037-039>041-045>050-054>059-063>069-073>076-082>088-260900-
  CENTRAL AND SOUTHEAST OHIO

CITY           SKY/WX    TMP DP  RH WIND       PRES   REMARKS
COLUMBUS       FAIR      59  51  75 S3        30.08F
OSU AIRPORT    FAIR      54  49  83 SW5       30.08F
BOLTON FIELD   NOT AVBL
RICKENBACK AFB FAIR      55  52  90 S5        30.09S
NEWARK         FAIR      51  48  89 CALM      30.08F
MARION         FAIR      55  47  74 SW7       30.08S
LANCASTER      FAIR      54  51  90 CALM      30.10S
ZANESVILLE     FAIR      51  48  89 S3        30.08F
NEW PHILLY     FAIR      51  49  92 SE3       30.08S
$$




USA.gov is the U.S. government's official web portal to all federal, state and local government web resources and services.